K3TOW Weather Reports


Display with metric or nautical units.
time (UTC)temp
F
wind
direction
speed
MPH
gust
MPH
rain 1hr
in
rain 24hr
in
rain mn
in
humidity
%
barometer
mb
20260504001003 55 37 1.0 2.0 0.00 0.00 0.00 48 1009.3
20260504000003 56 39 1.0 3.0 0.00 0.00 0.00 45 1009.2
20260503235003 57 67 1.0 8.0 0.00 0.00 0.00 43 1009.1
20260503234003 58 45 1.0 5.0 0.00 0.00 0.00 44 1009.0
20260503233003 58 8 1.0 8.0 0.00 0.00 0.00 41 1009.0
20260503232003 59 54 1.0 6.0 0.00 0.00 0.00 40 1008.9
20260503231003 59 29 3.0 10.0 0.00 0.00 0.00 37 1008.9
20260503230003 60 346 2.0 8.0 0.00 0.00 0.00 37 1009.0
20260503225003 60 36 2.0 11.0 0.00 0.00 0.00 36 1008.9
20260503224003 61 18 3.0 7.0 0.00 0.00 0.00 36 1008.9
20260503223003 60 23 3.0 9.0 0.00 0.00 0.00 38 1009.0
20260503222003 60 19 2.0 6.0 0.00 0.00 0.00 40 1008.9
20260503221003 60 32 2.0 7.0 0.00 0.00 0.00 39 1008.8
20260503220214 60 354 3.0 8.0 0.00 0.00 0.00 37 1008.8
20260503215003 60 1 2.0 7.0 0.00 0.00 0.00 36 1008.9
20260503214003 62 16 2.0 9.0 0.00 0.00 0.00 36 1008.7
20260503213003 61 22 3.0 13.0 0.00 0.00 0.00 36 1008.6
20260503212003 61 351 3.0 10.0 0.00 0.00 0.00 36 1008.6
20260503211003 61 7 4.0 13.0 0.00 0.00 0.00 34 1008.6
20260503210003 61 341 4.0 12.0 0.00 0.00 0.00 34 1008.6
20260503205003 61 339 3.0 9.0 0.00 0.00 0.00 35 1008.4
20260503204003 61 352 4.0 11.0 0.00 0.00 0.00 35 1008.5
20260503203213 60 353 4.0 10.0 0.00 0.00 0.00 34 1008.4
20260503202213 60 48 2.0 7.0 0.00 0.00 0.00 35 1008.5
20260503201003 59 348 3.0 9.0 0.00 0.00 0.00 34 1008.6
20260503200003 60 355 4.0 12.0 0.00 0.00 0.00 34 1008.7
20260503195003 60 328 2.0 11.0 0.00 0.00 0.00 33 1008.8
20260503194003 60 328 2.0 12.0 0.00 0.00 0.00 33 1008.9
20260503193003 60 352 2.0 6.0 0.00 0.00 0.00 33 1009.2
20260503192003 60 28 2.0 12.0 0.00 0.00 0.00 33 1009.3
20260503191003 60 359 3.0 11.0 0.00 0.00 0.00 34 1009.4
20260503190003 60 329 3.0 9.0 0.00 0.00 0.00 34 1009.4
20260503185003 60 353 3.0 9.0 0.00 0.00 0.00 34 1009.5
20260503184212 59 360 4.0 11.0 0.00 0.00 0.00 35 1009.8
20260503183003 58 339 3.0 14.0 0.00 0.00 0.00 32 1009.9
20260503182212 58 345 3.0 10.0 0.00 0.00 0.00 37 1009.9
20260503181212 58 352 3.0 8.0 0.00 0.00 0.00 36 1009.9
20260503180003 57 350 4.0 12.0 0.00 0.00 0.00 36 1010.3
20260503175003 58 8 4.0 11.0 0.00 0.00 0.00 37 1010.3
20260503174003 57 353 3.0 10.0 0.00 0.00 0.00 38 1010.4
20260503173003 56 339 4.0 11.0 0.00 0.00 0.00 37 1010.7
20260503172212 55 336 3.0 9.0 0.00 0.00 0.00 38 1010.7
20260503171214 54 330 4.0 10.0 0.00 0.00 0.00 38 1010.8
20260503170214 54 332 3.0 11.0 0.00 0.00 0.00 40 1010.9
20260503151003 51 338 3.0 10.0 0.00 0.00 0.00 40 1011.6
20260503131003 45 305 2.0 9.0 0.00 0.00 0.00 60 1012.2
20260503081003 42 305 1.0 3.0 0.00 0.02 0.00 69 1010.7
20260503072003 43 0 0.0 0.0 0.00 0.07 0.00 69 1010.4
20260503071003 43 0 0.0 0.0 0.00 0.07 0.00 69 1010.4
20260503055003 44 312 1.0 3.0 0.00 0.08 0.00 66 1010.8
20260503054214 44 295 1.0 6.0 0.00 0.08 0.00 66 1010.8
20260503053003 45 293 2.0 5.0 0.00 0.08 0.00 64 1010.9
20260503052003 45 281 2.0 7.0 0.00 0.08 0.00 64 1011.0
20260503051003 45 316 1.0 6.0 0.00 0.08 0.00 64 1011.0
20260503050003 45 294 1.0 6.0 0.00 0.08 0.00 63 1011.0
20260503045003 45 286 1.0 7.0 0.00 0.09 0.00 63 1011.1
20260503044213 45 299 0.0 7.0 0.00 0.09 0.00 63 1011.1
20260503043003 46 282 1.0 4.0 0.00 0.10 0.00 62 1011.1
20260503042003 46 291 0.0 4.0 0.00 0.10 0.00 64 1011.2
20260503041003 46 325 1.0 4.0 0.00 0.10 0.00 63 1011.3
20260503040004 46 294 2.0 7.0 0.00 0.10 0.00 61 1011.2
20260503035003 46 283 2.0 6.0 0.00 0.13 0.10 61 1011.2
20260503034213 46 301 2.0 6.0 0.00 0.14 0.10 60 1011.2
20260503033003 47 285 2.0 8.0 0.00 0.14 0.10 61 1011.2
20260503032003 47 264 1.0 6.0 0.00 0.14 0.10 62 1011.1
20260503031213 47 271 1.0 6.0 0.00 0.15 0.10 60 1011.1
20260503030003 47 276 1.0 4.0 0.00 0.15 0.10 61 1011.1
20260503025213 47 275 1.0 4.0 0.00 0.15 0.10 61 1011.1
20260503024212 47 295 2.0 5.0 0.00 0.16 0.10 60 1011.2
20260503023213 47 281 0.0 2.0 0.00 0.16 0.10 63 1011.2
20260503022003 47 0 0.0 0.0 0.00 0.18 0.10 62 1011.2
20260503021003 48 0 0.0 0.0 0.00 0.18 0.10 68 1011.2
20260503020003 48 0 0.0 0.0 0.00 0.18 0.10 67 1011.1
20260503015003 48 0 0.0 0.0 0.00 0.18 0.10 59 1011.0
20260503014003 48 74 0.0 2.0 0.00 0.19 0.10 59 1011.0
20260503013003 48 0 0.0 0.0 0.00 0.19 0.10 61 1010.9
20260503012214 48 54 0.0 2.0 0.00 0.19 0.10 60 1010.9
20260503011004 49 293 1.0 3.0 0.00 0.20 0.10 58 1010.8
20260503010003 49 262 0.0 2.0 0.00 0.21 0.10 61 1010.7
20260503005214 49 246 0.0 5.0 0.00 0.21 0.10 56 1010.5
20260503004003 50 339 1.0 6.0 0.00 0.21 0.10 55 1010.4
20260503003003 50 284 1.0 4.0 0.00 0.21 0.10 57 1010.4
20260503002003 50 0 0.0 0.0 0.00 0.21 0.10 59 1010.3